This demonstration page uses our WeatherBlox Daily Observations layout. Learn more.

36.17497, -115.13722

Hourly Observations for October 20, 2018

Temp ( °F °C ) Dew Point ( °F °C ) Humidity (%) Winds ( mph kmh ) Pressure ( in mb ) Visibility ( mi km ) Precip ( " mm )
12:53 am 00:53 Clear 62 16.7 29 -1.7 29 29 NW 7 11 30.12 1020 10 16.09344 0 0
1:53 am 01:53 Clear 61 16.1 30 -1.1 31 31 NE 8 13 30.12 1020 10 16.09344 0 0
2:53 am 02:53 Clear 63 17.2 31 -0.6 30 30 NNW 9 15 30.12 1020 10 16.09344 0 0
3:53 am 03:53 Clear 62 16.7 30 -1.1 30 30 N 7 11 30.12 1020 10 16.09344 0 0
4:53 am 04:53 Clear 60 15.6 31 -0.6 33 33 NW 7 11 30.12 1020 10 16.09344 0 0
5:53 am 05:53 Clear 60 15.6 30 -1.1 32 32 WNW 7 11 30.12 1020 10 16.09344 0 0
6:53 am 06:53 Sunny 59 15 30 -1.1 33 33 WNW 8 13 30.12 1020 10 16.09344 0 0
7:53 am 07:53 Sunny 62 16.7 31 -0.6 31 31 NW 3 6 30.15 1021 10 16.09344 0 0
8:53 am 08:53 Sunny 69 20.6 31 -0.6 24 24 N 7 11 30.15 1021 10 16.09344 0 0
9:53 am 09:53 Sunny 73 22.8 32 0 22 22 N 6 9 30.12 1020 10 16.09344 0 0
10:53 am 10:53 Mostly Sunny 75 23.9 31 -0.6 20 20 Calm 30.12 1020 10 16.09344 0 0
11:53 am 11:53 Sunny 77 25 31 -0.6 18 18 NW 6 9 30.09 1019 10 16.09344 0 0
12:53 pm 12:53 Mostly Sunny 79 26.1 33 0.6 19 19 ENE 7 11 30.06 1018 10 16.09344 0 0
1:53 pm 13:53 Sunny 80 26.7 34 1.1 19 19 E 9 15 30.03 1017 10 16.09344 0 0
2:53 pm 14:53 Mostly Cloudy 80 26.7 35 1.7 20 20 ESE 10 17 30 1016 10 16.09344 0 0
3:53 pm 15:53 Mostly Sunny 80 26.7 38 3.3 22 22 ENE 6 9 30 1016 10 16.09344 0 0
4:53 pm 16:53 Mostly Cloudy 80 26.7 38 3.3 22 22 SE 3 6 30 1016 10 16.09344 0 0
5:53 pm 17:53 Sunny 79 26.1 39 3.9 24 24 Calm 29.97 1015 10 16.09344 0 0
6:53 pm 18:53 Clear 76 24.4 40 4.4 27 27 W 6 9 29.97 1015 10 16.09344 0 0
7:53 pm 19:53 Mostly Cloudy 74 23.3 40 4.4 29 29 W 6 9 29.97 1015 10 16.09344 0 0
8:53 pm 20:53 Mostly Cloudy 73 22.8 40 4.4 30 30 NNW 3 6 29.97 1015 10 16.09344 0 0
9:53 pm 21:53 Mostly Cloudy 71 21.7 40 4.4 32 32 NW 6 9 29.97 1015 10 16.09344 0 0
10:53 pm 22:53 Partly Cloudy 71 21.7 41 5 34 34 NNE 3 6 29.97 1015 10 16.09344 0 0
11:53 pm 23:53 Partly Cloudy 68 20 41 5 38 38 Calm 29.97 1015 10 16.09344 0 0

Powered by AerisWeather